This is the latest recevied weather packets stored in our database for station/object K7FLA. If no packets are shown the sender has not sent any weather packets the latest 10 day(s).
| Time | Temp. | Humidity | Pressure | Rain* | Wind** | Luminosity | Snow |
|---|---|---|---|---|---|---|---|
| 1788279200 | 29.44° C | 23% | 1097.3 hPa | 0 mm | - | 412 W/m² | - |
| 1788278895 | 28.89° C | 21% | 1097.1 hPa | 0 mm | - | 396 W/m² | - |
| 1788278592 | 28.89° C | 23% | 1097.3 hPa | 0 mm | - | 380 W/m² | - |
| 1788278291 | 28.89° C | 25% | 1097.1 hPa | 0 mm | - | 363 W/m² | - |
| 1788277986 | 28.33° C | 25% | 1097.1 hPa | 0 mm | - | 346 W/m² | - |
| 1788277682 | 28.33° C | 25% | 1097.3 hPa | 0 mm | - | 328 W/m² | - |
| 1788277376 | 27.78° C | 25% | 1097 hPa | 0 mm | - | 313 W/m² | - |
| 1788277071 | 27.78° C | 26% | 1097.1 hPa | 0 mm | - | 297 W/m² | - |
| 1788276770 | 27.22° C | 27% | 1097.3 hPa | 0 mm | - | 281 W/m² | - |
| 1788276469 | 27.78° C | 26% | 1097.1 hPa | 0 mm | - | 265 W/m² | - |
| 1788276169 | 27.22° C | 28% | 1097.1 hPa | 0 mm | - | 249 W/m² | - |
| 1788275864 | 27.22° C | 30% | 1097.1 hPa | 0 mm | - | 233 W/m² | - |
| 1788275564 | 26.67° C | 33% | 1097.1 hPa | 0 mm | - | 216 W/m² | - |
| 1788275263 | 26.11° C | 32% | 1097.1 hPa | 0 mm | - | 199 W/m² | - |
| 1788274961 | 26.11° C | 32% | 1097 hPa | 0 mm | - | 184 W/m² | - |
| 1788274660 | 25.56° C | 36% | 1096.8 hPa | 0 mm | - | 168 W/m² | - |
| 1788274354 | 25° C | 38% | 1097 hPa | 0 mm | - | 153 W/m² | - |
| 1788274050 | 24.44° C | 39% | 1096.8 hPa | 0 mm | - | 140 W/m² | - |
| 1788273744 | 23.33° C | 41% | 1096.6 hPa | 0 mm | - | 125 W/m² | - |
| 1788273440 | 22.78° C | 43% | 1096.7 hPa | 0 mm | - | 112 W/m² | - |
| 1788273136 | 22.22° C | 47% | 1096.8 hPa | 0 mm | - | 99 W/m² | - |
| 1788272832 | 21.11° C | 49% | 1096.8 hPa | 0 mm | - | 88 W/m² | - |
| 1788272532 | 20.56° C | 50% | 1096.5 hPa | 0 mm | - | 77 W/m² | - |
| 1788272227 | 20° C | 52% | 1096.6 hPa | 0 mm | - | 67 W/m² | - |
| 1788271927 | 18.89° C | 55% | 1096.6 hPa | 0 mm | - | 58 W/m² | - |
* Rain latest hour (hover to see other rain measurements)
** Current wind speed in m/s (hover to see current wind gust speed)